| time (UTC) | temp F | wind direction | speed knots | gust knots | rain 1hr in | rain 24hr in | rain mn in | humidity % | barometer mb |
| 20260509034536 | 73 | 115 | 2.6 | 6.1 | 0.00 | 0.00 | 0.00 | 93 | 1008.6 |
| 20260509033040 | 73 | 116 | 2.6 | 6.1 | 0.00 | 0.00 | 0.00 | 92 | 1008.4 |
| 20260509031535 | 74 | 114 | 3.5 | 7.0 | 0.00 | 0.00 | 0.00 | 92 | 1008.3 |
| 20260509030039 | 74 | 105 | 3.5 | 5.2 | 0.00 | 0.00 | 0.00 | 92 | 1008.3 |
| 20260509024534 | 74 | 103 | 0.9 | 2.6 | 0.00 | 0.00 | 0.00 | 91 | 1008.1 |
| 20260509023038 | 74 | 103 | 0.9 | 1.7 | 0.00 | 0.00 | 0.00 | 91 | 1007.8 |
| 20260509021533 | 74 | 103 | 1.7 | 3.5 | 0.00 | 0.00 | 0.00 | 91 | 1007.6 |
| 20260509020032 | 74 | 103 | 2.6 | 5.2 | 0.00 | 0.00 | 0.00 | 91 | 1007.6 |
| 20260509014531 | 75 | 102 | 3.5 | 7.0 | 0.00 | 0.00 | 0.00 | 90 | 1007.5 |
| 20260509013034 | 75 | 92 | 3.5 | 6.1 | 0.00 | 0.00 | 0.00 | 90 | 1007.5 |
| 20260509011530 | 75 | 90 | 2.6 | 6.1 | 0.00 | 0.00 | 0.00 | 90 | 1007.4 |
| 20260509010029 | 75 | 86 | 2.6 | 7.0 | 0.00 | 0.00 | 0.00 | 89 | 1007.1 |
| 20260509004536 | 75 | 86 | 2.6 | 6.1 | 0.00 | 0.00 | 0.00 | 89 | 1007.2 |
| 20260509003029 | 75 | 87 | 3.5 | 7.0 | 0.00 | 0.00 | 0.00 | 89 | 1007.2 |
| 20260509001528 | 76 | 92 | 4.3 | 7.0 | 0.00 | 0.00 | 0.00 | 89 | 1007.1 |
| 20260509000035 | 76 | 90 | 3.5 | 7.0 | 0.00 | 0.00 | 0.00 | 89 | 1007.1 |
| 20260508234535 | 76 | 88 | 3.5 | 6.1 | 0.00 | 0.00 | 0.00 | 89 | 1007.2 |
| 20260508233027 | 76 | 90 | 2.6 | 7.0 | 0.00 | 0.00 | 0.00 | 88 | 1007.1 |
| 20260508231523 | 76 | 101 | 5.2 | 7.0 | 0.00 | 0.00 | 0.00 | 88 | 1007.1 |
| 20260508230023 | 76 | 101 | 3.5 | 7.0 | 0.00 | 0.00 | 0.00 | 88 | 1007.1 |
| 20260508224523 | 76 | 101 | 2.6 | 7.0 | 0.00 | 0.00 | 0.00 | 88 | 1007.1 |
| 20260508223024 | 76 | 105 | 3.5 | 6.1 | 0.00 | 0.00 | 0.00 | 88 | 1007.2 |
| 20260508221518 | 76 | 104 | 4.3 | 7.8 | 0.00 | 0.00 | 0.00 | 88 | 1007.4 |
| 20260508220017 | 76 | 92 | 4.3 | 7.0 | 0.00 | 0.00 | 0.00 | 87 | 1007.5 |
| 20260508214516 | 76 | 74 | 3.5 | 8.7 | 0.00 | 0.00 | 0.00 | 87 | 1007.6 |
| 20260508213022 | 76 | 108 | 3.5 | 7.8 | 0.00 | 0.00 | 0.00 | 87 | 1007.8 |
| 20260508211511 | 75 | 71 | 3.5 | 7.8 | 0.00 | 0.00 | 0.00 | 88 | 1007.9 |
| 20260508210010 | 75 | 82 | 4.3 | 8.7 | 0.00 | 0.00 | 0.00 | 87 | 1008.1 |
| 20260508204509 | 75 | 73 | 4.3 | 7.8 | 0.00 | 0.00 | 0.00 | 87 | 1008.3 |
| 20260508203005 | 74 | 73 | 3.5 | 7.0 | 0.00 | 0.00 | 0.00 | 87 | 1008.5 |
| 20260508201612 | 74 | 74 | 3.5 | 7.0 | 0.00 | 0.00 | 0.00 | 88 | 1008.8 |
| 20260508200057 | 72 | 69 | 0.9 | 3.5 | 0.00 | 0.00 | 0.00 | 88 | 1008.9 |
| 20260508194619 | 72 | 69 | 2.6 | 4.3 | 0.00 | 0.00 | 0.00 | 88 | 1009.2 |
| 20260508193049 | 71 | 69 | 1.7 | 4.3 | 0.00 | 0.00 | 0.00 | 88 | 1009.4 |
| 20260508191546 | 71 | 68 | 1.7 | 3.5 | 0.00 | 0.00 | 0.00 | 87 | 1009.8 |
| 20260508190043 | 70 | 68 | 1.7 | 3.5 | 0.00 | 0.00 | 0.00 | 87 | 1009.9 |
| 20260508184542 | 70 | 68 | 2.6 | 4.3 | 0.00 | 0.00 | 0.00 | 87 | 1009.9 |
| 20260508183040 | 70 | 68 | 2.6 | 5.2 | 0.00 | 0.00 | 0.00 | 87 | 1010.2 |
| 20260508181557 | 69 | 55 | 1.7 | 4.3 | 0.00 | 0.00 | 0.00 | 87 | 1010.4 |
| 20260508180037 | 69 | 56 | 2.6 | 4.3 | 0.00 | 0.00 | 0.00 | 86 | 1010.4 |
| 20260508174540 | 69 | 49 | 2.6 | 4.3 | 0.00 | 0.00 | 0.00 | 86 | 1010.7 |
| 20260508173131 | 68 | 51 | 0.9 | 4.3 | 0.00 | 0.00 | 0.00 | 86 | 1010.9 |
| 20260508171533 | 68 | 50 | 2.6 | 5.2 | 0.00 | 0.00 | 0.00 | 86 | 1011.0 |
| 20260508170029 | 68 | 50 | 2.6 | 5.2 | 0.00 | 0.00 | 0.00 | 86 | 1011.0 |
| 20260508164524 | 67 | 46 | 1.7 | 5.2 | 0.00 | 0.00 | 0.00 | 87 | 1011.2 |
| 20260508163021 | 67 | 30 | 2.6 | 5.2 | 0.00 | 0.00 | 0.00 | 86 | 1011.2 |
| 20260508161523 | 67 | 360 | 2.6 | 7.0 | 0.00 | 0.00 | 0.00 | 87 | 1011.4 |
| 20260508160018 | 66 | 360 | 2.6 | 5.2 | 0.00 | 0.00 | 0.00 | 87 | 1011.6 |
| 20260508154512 | 66 | 360 | 1.7 | 5.2 | 0.00 | 0.00 | 0.00 | 87 | 1011.7 |
| 20260508153008 | 66 | 355 | 2.6 | 7.0 | 0.00 | 0.00 | 0.00 | 87 | 1011.8 |
| 20260508151507 | 65 | 355 | 1.7 | 7.0 | 0.00 | 0.00 | 0.00 | 87 | 1012.0 |
| 20260508150009 | 65 | 5 | 2.6 | 7.8 | 0.00 | 0.00 | 0.00 | 87 | 1012.1 |
| 20260508144505 | 65 | 11 | 3.5 | 5.2 | 0.00 | 0.00 | 0.00 | 87 | 1012.0 |
| 20260508143012 | 65 | 24 | 2.6 | 5.2 | 0.00 | 0.00 | 0.00 | 88 | 1012.2 |
| 20260508141502 | 64 | 27 | 3.5 | 7.8 | 0.00 | 0.00 | 0.00 | 88 | 1012.0 |
| 20260508140002 | 64 | 11 | 3.5 | 7.8 | 0.00 | 0.00 | 0.00 | 89 | 1012.2 |
| 20260508134605 | 64 | 16 | 3.5 | 7.8 | 0.00 | 0.00 | 0.00 | 90 | 1012.0 |
| 20260508133112 | 63 | 29 | 2.6 | 5.2 | 0.00 | 0.00 | 0.00 | 90 | 1012.0 |
| 20260508131559 | 63 | 13 | 2.6 | 7.0 | 0.00 | 0.00 | 0.00 | 90 | 1012.0 |
| 20260508130058 | 63 | 5 | 1.7 | 4.3 | 0.00 | 0.00 | 0.00 | 90 | 1012.0 |
| 20260508124557 | 63 | 5 | 0.9 | 3.5 | 0.00 | 0.00 | 0.00 | 90 | 1012.1 |
| 20260508123102 | 63 | 5 | 2.6 | 4.3 | 0.00 | 0.00 | 0.00 | 90 | 1011.8 |
| 20260508121557 | 63 | 5 | 0.9 | 5.2 | 0.00 | 0.00 | 0.00 | 90 | 1011.8 |
| 20260508120055 | 63 | 5 | 3.5 | 7.8 | 0.00 | 0.00 | 0.00 | 89 | 1012.0 |
| 20260508114553 | 63 | 347 | 4.3 | 7.0 | 0.00 | 0.00 | 0.00 | 89 | 1012.2 |
| 20260508113053 | 63 | 22 | 1.7 | 5.2 | 0.00 | 0.00 | 0.00 | 88 | 1012.3 |
| 20260508111555 | 64 | 27 | 1.7 | 3.5 | 0.00 | 0.00 | 0.00 | 87 | 1012.5 |
| 20260508110051 | 64 | 27 | 1.7 | 3.5 | 0.00 | 0.00 | 0.00 | 86 | 1012.3 |
| 20260508104549 | 64 | 23 | 2.6 | 3.5 | 0.00 | 0.00 | 0.00 | 85 | 1011.7 |
| 20260508103049 | 64 | 14 | 3.5 | 5.2 | 0.00 | 0.00 | 0.00 | 84 | 1011.9 |
| 20260508101548 | 63 | 360 | 4.3 | 7.0 | 0.00 | 0.00 | 0.00 | 84 | 1012.3 |
| 20260508100046 | 63 | 349 | 3.5 | 7.0 | 0.00 | 0.00 | 0.00 | 84 | 1012.6 |
| 20260508094551 | 63 | 342 | 3.5 | 7.8 | 0.00 | 0.00 | 0.00 | 84 | 1012.7 |
| 20260508093147 | 63 | 355 | 3.5 | 7.0 | 0.00 | 0.00 | 0.00 | 84 | 1012.6 |
| 20260508091544 | 63 | 17 | 2.6 | 7.0 | 0.00 | 0.00 | 0.00 | 84 | 1012.0 |
| 20260508090044 | 63 | 11 | 3.5 | 7.0 | 0.00 | 0.00 | 0.00 | 84 | 1011.9 |
| 20260508084541 | 63 | 16 | 2.6 | 7.0 | 0.00 | 0.00 | 0.00 | 83 | 1012.0 |
| 20260508083039 | 63 | 360 | 3.5 | 7.8 | 0.00 | 0.00 | 0.00 | 83 | 1012.3 |
| 20260508081538 | 64 | 337 | 5.2 | 8.7 | 0.00 | 0.00 | 0.00 | 83 | 1012.5 |
| 20260508080036 | 64 | 360 | 4.3 | 7.0 | 0.00 | 0.00 | 0.00 | 83 | 1012.0 |
| 20260508074537 | 64 | 26 | 3.5 | 5.2 | 0.00 | 0.00 | 0.00 | 83 | 1012.1 |
| 20260508073032 | 64 | 40 | 1.7 | 3.5 | 0.00 | 0.00 | 0.00 | 82 | 1012.5 |
| 20260508071533 | 64 | 44 | 2.6 | 6.1 | 0.00 | 0.00 | 0.00 | 82 | 1012.5 |
| 20260508070030 | 64 | 42 | 2.6 | 5.2 | 0.00 | 0.00 | 0.00 | 82 | 1012.5 |
| 20260508064529 | 64 | 360 | 0.9 | 4.3 | 0.00 | 0.00 | 0.00 | 82 | 1013.2 |
| 20260508063028 | 64 | 360 | 2.6 | 5.2 | 0.00 | 0.00 | 0.00 | 81 | 1013.2 |
| 20260508061529 | 64 | 315 | 4.3 | 7.8 | 0.00 | 0.00 | 0.00 | 81 | 1014.2 |
| 20260508060028 | 64 | 321 | 6.1 | 9.6 | 0.00 | 0.00 | 0.00 | 81 | 1014.1 |
| 20260508054524 | 64 | 355 | 1.7 | 4.3 | 0.00 | 0.00 | 0.00 | 82 | 1013.7 |
| 20260508053022 | 64 | 51 | 2.6 | 8.7 | 0.00 | 0.00 | 0.00 | 81 | 1013.1 |
| 20260508051525 | 64 | 23 | 4.3 | 8.7 | 0.00 | 0.00 | 0.00 | 82 | 1012.4 |
| 20260508050016 | 64 | 42 | 3.5 | 6.1 | 0.00 | 0.00 | 0.00 | 82 | 1012.5 |
| 20260508044513 | 65 | 12 | 2.6 | 7.8 | 0.00 | 0.00 | 0.00 | 81 | 1012.8 |
| 20260508043016 | 65 | 5 | 3.5 | 7.8 | 0.00 | 0.00 | 0.00 | 81 | 1013.1 |
| 20260508041512 | 65 | 355 | 3.5 | 9.6 | 0.00 | 0.00 | 0.00 | 81 | 1013.2 |
| 20260508040013 | 65 | 355 | 4.3 | 8.7 | 0.00 | 0.00 | 0.00 | 82 | 1013.6 |